Location: Derby
(52.9213°N, 1.4761°W)
Time: 18:27:26
(UTC+01:00)

Tiros 1 - Pass Details

Date: 28 May 2025
Orbit: 620 x 651 km, 48.4° (Epoch: 13 June)

Event Time Altitude Azimuth Distance (km) Brightness Sun altitude
Rises 19:49:24 0° 274° (W) 2,899 12.1 10.5°
Reaches altitude 10° 19:51:53 10° 264° (W) 1,994 11.0 10.1°
Maximum altitude 19:55:56 32° 202° (SSW) 1,085 8.4 9.6°
Drops below altitude 10° 20:00:00 10° 140° (SE) 2,003 9.2 9.0°
Sets 20:02:31 0° 130° (SE) 2,914 9.9 8.6°
